Other Public Products
Issued by NWS Charleston, SC

Current Version | Previous Version | Graphics & Text | Print | Product List | Glossary On
Versions: 1 2 3 4 5 6 7 8 9 10 11 12 13 14 15 16 17 18 19 20 21 22 23 24 25 26 27 28 29 30 31 32 33 34 35 36 37 38 39 40 41 42 43 44 45 46 47 48 49 50
000 FPUS82 KCHS 290627 OPUCHS TEST...KCHS/KSAV Gateway Observations...TEST National Weather Service Charleston SC 200 AM EDT MON MAY 29 2017 NOTE: "fair" indicates few or no clouds below 12,000 feet with no significant weather and/or obstructions to visibility. SCZ050-WAZ558-NCZ071-TXZ119-213-PAZ071-DCZ001-FLZ074-172-MI076- NYZ176-178-MAZ016-IL014-TNZ027-NJZ106-GAZ044-MD014-290700- ...Gateway Observations for Charleston International... CITY SKY/WX TMP DP RH WIND PRES REMARKS Chas Airport PTCLDY 77 72 84 SW8 29.90R 6HR MIN TEMP: 75; 6HR MAX TEMP: 83; Seattle CLEAR 66 48 52 W3 30.02S 6HR MIN TEMP: 66; 6HR MAX TEMP: 86; Charlotte CLOUDY 65 62 90 CALM 29.90S 6HR MIN TEMP: 64; 6HR MAX TEMP: 80; 6HR PCP: 0.10; Dallas DFW CLOUDY 74 69 85 CALM 30.02S 6HR MIN TEMP: 72; 6HR MAX TEMP: 79; Dallas Love CLOUDY 74 69 85 SW3 30.03S 6HR MIN TEMP: 74; 6HR MAX TEMP: 79; Philladelphia LGT RAIN 60 57 89 E8 29.84F 6HR MIN TEMP: 60; 6HR MAX TEMP: 65; 6HR PCP: 0.05; Wash National LGT RAIN 65 64 97 E5 29.81S 6HR MIN TEMP: 65; 6HR MAX TEMP: 68; 6HR PCP: TRACE; Baltimore CLOUDY 62 62 100 NE6 29.81S 6HR MIN TEMP: 62; 6HR MAX TEMP: 65; 6HR PCP: 0.02; Miami PTCLDY 81 69 67 W3 30.03S 6HR MIN TEMP: 81; 6HR MAX TEMP: 90; Detroit MOCLDY 61 59 93 W6 29.72S 6HR MIN TEMP: 61; 6HR MAX TEMP: 64; 6HR PCP: 0.25; Newark CLOUDY 61 53 75 E7 29.89S 6HR MIN TEMP: 60; 6HR MAX TEMP: 63; 6HR PCP: TRACE; Laguardia CLOUDY 61 53 75 E12 29.89F 6HR MIN TEMP: 61; 6HR MAX TEMP: 65; 6HR PCP: 0.01; J F K CLOUDY 59 55 87 E12 29.90F 6HR MIN TEMP: 59; 6HR MAX TEMP: 62; 6HR PCP: TRACE; Boston Logan CLOUDY 53 49 86 S9 29.99S 6HR MIN TEMP: 53; 6HR MAX TEMP: 63; Ft. Lauderdale CLEAR 81 70 69 NW3 30.00F 6HR MIN TEMP: 81; 6HR MAX TEMP: 86; Chicago O`Hare PTCLDY 63 49 60 SW5 29.76R 6HR MIN TEMP: 61; 6HR MAX TEMP: 75; Chicago Midway MOCLDY 65 50 58 SW6 29.77R 6HR MIN TEMP: 64; 6HR MAX TEMP: 76; Houston Bush TSTM 71 69 93 E13 30.03F 6HR MIN TEMP: 70; 6HR MAX TEMP: 87; 6HR PCP: 1.42; Houston Hobby TSTM 71 69 93 NE9 30.04F FOG 6HR MIN TEMP: 70; 6HR MAX TEMP: 84; 6HR PCP: 0.40; Nashville CLOUDY 69 64 84 W5 29.94R 6HR MIN TEMP: 69; 6HR MAX TEMP: 77; Atlanta MOCLDY 71 65 81 W9 29.97R 6HR MIN TEMP: 71; 6HR MAX TEMP: 80; $$ GAZ044-118-TXZ119-213-NCZ071-DCZ001-MDZ014-506-PAZ021-071-NJZ106- NYZ176-178-MAZ106-OHZ011-021-055-MIZ076-KYZ091-ILZ014-INZ047- MNZ060-ONZ431-290700- ...Gateway Observations for Savannah International... CITY SKY/WX TMP DP RH WIND PRES REMARKS Savannah Arpt PTCLDY 78 66 66 W9 29.94S 6HR MIN TEMP: 76; 6HR MAX TEMP: 88; Atlanta MOCLDY 71 65 81 W9 29.97R 6HR MIN TEMP: 71; 6HR MAX TEMP: 80; Charlotte CLOUDY 65 62 90 CALM 29.90S 6HR MIN TEMP: 64; 6HR MAX TEMP: 80; 6HR PCP: 0.10; Dallas DFW CLOUDY 74 69 85 CALM 30.02S 6HR MIN TEMP: 72; 6HR MAX TEMP: 79; Houston Bush TSTM 71 69 93 E13 30.03F 6HR MIN TEMP: 70; 6HR MAX TEMP: 87; 6HR PCP: 1.42; Wash National LGT RAIN 65 64 97 E5 29.81S 6HR MIN TEMP: 65; 6HR MAX TEMP: 68; 6HR PCP: TRACE; Wash Dulles CLOUDY 64 63 96 CALM 29.82R FOG 6HR MIN TEMP: 64; 6HR MAX TEMP: 66; 6HR PCP: TRACE; Baltimore CLOUDY 62 62 100 NE6 29.81S 6HR MIN TEMP: 62; 6HR MAX TEMP: 65; 6HR PCP: 0.02; Philadelphia LGT RAIN 60 57 89 E8 29.84F 6HR MIN TEMP: 60; 6HR MAX TEMP: 65; 6HR PCP: 0.05; Newark CLOUDY 61 53 75 E7 29.89S 6HR MIN TEMP: 60; 6HR MAX TEMP: 63; 6HR PCP: TRACE; Laguardia CLOUDY 61 53 75 E12 29.89F 6HR MIN TEMP: 61; 6HR MAX TEMP: 65; 6HR PCP: 0.01; J F K CLOUDY 59 55 87 E12 29.90F 6HR MIN TEMP: 59; 6HR MAX TEMP: 62; 6HR PCP: TRACE; Boston CLOUDY 53 49 86 S9 29.99S 6HR MIN TEMP: 53; 6HR MAX TEMP: 63; Pittsburg LGT RAIN 64 63 96 NE3 29.78R 6HR MIN TEMP: 64; 6HR MAX TEMP: 76; 6HR PCP: 0.09; Akron MOCLDY 61 58 90 SW6 29.77F 6HR MIN TEMP: 61; 6HR MAX TEMP: 75; 6HR PCP: 0.31; Cleveland CLOUDY 64 60 87 S7 29.76S 6HR MIN TEMP: 64; 6HR MAX TEMP: 66; 6HR PCP: 0.47; Cincinnati CLOUDY 62 60 93 SW6 29.86R 6HR MIN TEMP: 61; 6HR MAX TEMP: 70; 6HR PCP: 0.23; Columbus CLOUDY 65 64 96 W10 29.81R Detroit MOCLDY 61 59 93 W6 29.72S 6HR MIN TEMP: 61; 6HR MAX TEMP: 64; 6HR PCP: 0.25; Chicago O`Hare PTCLDY 63 49 60 SW5 29.76R 6HR MIN TEMP: 61; 6HR MAX TEMP: 75; Minneapolis CLOUDY 58 46 64 W8 29.72F 6HR MIN TEMP: 56; 6HR MAX TEMP: 68; 6HR PCP: 0.02; Indianapolis CLEAR 61 60 97 SW7 29.83F FOG 6HR MIN TEMP: 61; 6HR MAX TEMP: 67; 6HR PCP: TRACE; Toronto Canada CLOUDY 59 55 88 SW5 29.66R $$

USA.gov is the U.S. government's official web portal to all federal, state and local government web resources and services.